FW5890 Weather Reports


Display with metric or nautical units.
time (UTC)temp
F
wind
direction
speed
MPH
gust
MPH
rain 1hr
in
rain 24hr
in
rain mn
in
humidity
%
barometer
mb
20260508140501 55 333 3.0 8.0 0.00 0.00 0.00 41 1007.8
20260508140028 55 342 3.0 9.0 0.00 0.00 0.00 42 1007.9
20260508135507 54 323 2.0 9.0 0.00 0.00 0.00 43 1007.9
20260508135032 54 321 3.0 11.0 0.00 0.00 0.00 42 1007.9
20260508134509 54 301 1.0 10.0 0.00 0.00 0.00 44 1007.9
20260508134038 54 341 4.0 11.0 0.00 0.00 0.00 42 1008.0
20260508133519 54 342 4.0 11.0 0.00 0.00 0.00 42 1008.1
20260508133007 54 320 2.0 10.0 0.00 0.00 0.00 42 1008.1
20260508132544 54 259 2.0 12.0 0.00 0.00 0.00 43 1008.1
20260508132020 54 273 5.0 12.0 0.00 0.00 0.00 42 1008.1
20260508131609 54 319 5.0 10.0 0.00 0.00 0.00 42 1008.1
20260508131041 54 319 2.0 6.0 0.00 0.00 0.00 42 1008.1
20260508130527 53 329 3.0 10.0 0.00 0.00 0.00 44 1008.2
20260508130100 52 319 2.0 10.0 0.00 0.00 0.00 43 1008.2
20260508125533 52 280 2.0 11.0 0.00 0.00 0.00 44 1008.2
20260508125054 51 271 3.0 11.0 0.00 0.00 0.00 44 1008.2
20260508124506 51 271 3.0 9.0 0.00 0.00 0.00 44 1008.2
20260508124031 50 288 2.0 6.0 0.00 0.00 0.00 46 1008.3
20260508123555 50 302 2.0 8.0 0.00 0.00 0.00 45 1008.3
20260508123030 49 316 3.0 9.0 0.00 0.00 0.00 45 1008.3
20260508122505 49 321 3.0 9.0 0.00 0.00 0.00 46 1008.3
20260508122053 49 312 3.0 6.0 0.00 0.00 0.00 46 1008.3
20260508121642 48 305 2.0 5.0 0.00 0.00 0.00 47 1008.3
20260508121008 48 317 1.0 6.0 0.00 0.00 0.00 47 1008.2
20260508120535 47 360 2.0 6.0 0.00 0.00 0.00 47 1008.2
20260508120059 47 360 2.0 6.0 0.00 0.00 0.00 47 1008.2
20260508115533 46 360 1.0 6.0 0.00 0.00 0.00 48 1008.2
20260508115057 46 360 1.0 6.0 0.00 0.00 0.00 48 1008.2
20260508114532 46 360 2.0 8.0 0.00 0.00 0.00 48 1008.2
20260508114021 45 360 2.0 8.0 0.00 0.00 0.00 49 1008.2
20260508113550 45 360 2.0 5.0 0.00 0.00 0.00 49 1008.2
20260508113024 45 360 2.0 6.0 0.00 0.00 0.00 50 1008.3
20260508112545 45 360 1.0 6.0 0.00 0.00 0.00 50 1008.2
20260508112034 44 360 1.0 4.0 0.00 0.00 0.00 50 1008.3
20260508111513 44 360 1.0 4.0 0.00 0.00 0.00 51 1008.3
20260508111056 44 360 1.0 4.0 0.00 0.00 0.00 51 1008.3
20260508110531 44 360 1.0 5.0 0.00 0.00 0.00 51 1008.3
20260508110057 43 360 1.0 5.0 0.00 0.00 0.00 52 1008.3
20260508105526 43 360 1.0 4.0 0.00 0.00 0.00 52 1008.3
20260508105103 43 360 0.0 4.0 0.00 0.00 0.00 53 1008.3
20260508104513 43 360 0.0 2.0 0.00 0.00 0.00 52 1008.3
20260508104049 43 360 0.0 3.0 0.00 0.00 0.00 52 1008.4
20260508103508 43 360 0.0 3.0 0.00 0.00 0.00 52 1008.3
20260508103120 43 360 1.0 4.0 0.00 0.00 0.00 52 1008.3
20260508102531 43 360 1.0 5.0 0.00 0.00 0.00 53 1008.4
20260508102108 43 360 1.0 5.0 0.00 0.00 0.00 52 1008.4
20260508101540 43 360 1.0 3.0 0.00 0.00 0.00 53 1008.4
20260508101128 43 360 0.0 3.0 0.00 0.00 0.00 53 1008.5
20260508100535 43 360 1.0 3.0 0.00 0.00 0.00 53 1008.4
20260508100011 43 360 0.0 3.0 0.00 0.00 0.00 52 1008.5
20260508095530 43 360 0.0 3.0 0.00 0.00 0.00 52 1008.5
20260508095056 43 360 0.0 3.0 0.00 0.00 0.00 52 1008.5
20260508094523 43 360 0.0 3.0 0.00 0.00 0.00 52 1008.5
20260508094044 43 360 0.0 3.0 0.00 0.00 0.00 53 1008.5
20260508093604 44 360 0.0 4.0 0.00 0.00 0.00 52 1008.6
20260508093040 44 360 0.0 4.0 0.00 0.00 0.00 52 1008.6
20260508092558 44 360 0.0 4.0 0.00 0.00 0.00 51 1008.6
20260508092007 44 360 1.0 4.0 0.00 0.00 0.00 51 1008.6
20260508091552 44 360 2.0 4.0 0.00 0.00 0.00 51 1008.6
20260508091002 44 360 1.0 4.0 0.00 0.00 0.00 52 1008.6
20260508090522 44 360 2.0 5.0 0.00 0.00 0.00 52 1008.6
20260508090016 43 360 1.0 5.0 0.00 0.00 0.00 53 1008.6
20260508085600 43 360 0.0 5.0 0.00 0.00 0.00 53 1008.6
20260508085009 43 360 1.0 5.0 0.00 0.00 0.00 53 1008.7
20260508084545 43 360 0.0 4.0 0.00 0.00 0.00 53 1008.7
20260508084006 44 360 0.0 3.0 0.00 0.00 0.00 53 1008.7
20260508083547 44 360 0.0 3.0 0.00 0.00 0.00 52 1008.6
20260508083022 44 360 1.0 3.0 0.00 0.00 0.00 52 1008.7
20260508082542 44 360 0.0 3.0 0.00 0.00 0.00 52 1008.7
20260508082102 44 360 0.0 3.0 0.00 0.00 0.00 52 1008.7
20260508081536 44 360 0.0 4.0 0.00 0.00 0.00 52 1008.8
20260508081013 44 360 0.0 3.0 0.00 0.00 0.00 51 1008.9
20260508080554 44 360 0.0 3.0 0.00 0.00 0.00 51 1008.9
20260508080032 44 360 1.0 3.0 0.00 0.00 0.00 52 1008.9
20260508075555 45 360 0.0 4.0 0.00 0.00 0.00 52 1009.0
20260508075021 45 360 1.0 4.0 0.00 0.00 0.00 52 1008.9
20260508074542 45 360 1.0 4.0 0.00 0.00 0.00 50 1008.9
20260508074103 45 360 1.0 4.0 0.00 0.00 0.00 51 1009.0
20260508073525 45 360 0.0 4.0 0.00 0.00 0.00 51 1009.1
20260508073055 45 360 0.0 5.0 0.00 0.00 0.00 51 1009.1
20260508072528 45 360 1.0 5.0 0.00 0.00 0.00 51 1009.1
20260508072051 45 360 1.0 5.0 0.00 0.00 0.00 50 1009.2
20260508071516 45 360 1.0 6.0 0.00 0.00 0.00 51 1009.2
20260508071042 45 360 1.0 6.0 0.00 0.00 0.00 50 1009.2
20260508070516 45 360 2.0 5.0 0.00 0.00 0.00 50 1009.2
20260508065533 45 360 1.0 8.0 0.00 0.00 0.00 50 1009.2
20260508065049 45 360 1.0 8.0 0.00 0.00 0.00 50 1009.3
20260508064615 45 360 1.0 3.0 0.00 0.00 0.00 50 1009.3
20260508064020 45 360 1.0 4.0 0.00 0.00 0.00 50 1009.3
20260508063540 45 360 0.0 3.0 0.00 0.00 0.00 50 1009.4
20260508063020 46 360 0.0 3.0 0.00 0.00 0.00 50 1009.4
20260508062534 46 360 0.0 4.0 0.00 0.00 0.00 50 1009.4
20260508062100 46 360 2.0 5.0 0.00 0.00 0.00 50 1009.6
20260508061536 45 360 2.0 5.0 0.00 0.00 0.00 51 1009.6
20260508061029 44 360 1.0 5.0 0.00 0.00 0.00 53 1009.6
20260508060546 44 360 0.0 2.0 0.00 0.00 0.00 55 1009.6
20260508060109 44 360 0.0 2.0 0.00 0.00 0.00 56 1009.7
20260508055539 44 360 0.0 2.0 0.00 0.00 0.00 57 1009.7
20260508055100 44 360 0.0 4.0 0.00 0.00 0.00 56 1009.7
20260508054510 43 360 0.0 4.0 0.00 0.00 0.00 59 1009.7
20260508054030 42 360 0.0 2.0 0.00 0.00 0.00 61 1009.8
20260508053504 42 360 0.0 1.0 0.00 0.00 0.00 63 1009.7
20260508053028 41 360 0.0 1.0 0.00 0.00 0.00 67 1009.8
20260508052544 41 360 0.0 2.0 0.00 0.00 0.00 70 1009.9
20260508052015 40 360 0.0 1.0 0.00 0.00 0.00 73 1009.9
20260508051553 40 360 0.0 1.0 0.00 0.00 0.00 73 1009.9
20260508051008 40 360 0.0 0.0 0.00 0.00 0.00 75 1009.9
20260508050528 40 360 0.0 1.0 0.00 0.00 0.00 74 1010.0
20260508050048 40 360 0.0 1.0 0.00 0.00 0.00 75 1009.9
20260508045522 40 360 0.0 0.0 0.00 0.00 0.00 75 1010.0
20260508045044 40 360 0.0 0.0 0.00 0.00 0.00 75 1010.0
20260508044604 39 360 0.0 0.0 0.00 0.00 0.00 73 1010.0
20260508044013 39 360 0.0 0.0 0.00 0.00 0.00 75 1010.1
20260508043531 39 360 0.0 0.0 0.00 0.00 0.00 75 1010.1
20260508043008 39 360 0.0 0.0 0.00 0.00 0.00 76 1010.2
20260508042528 39 360 0.0 0.0 0.00 0.00 0.00 76 1010.1
20260508042108 39 360 0.0 0.0 0.00 0.00 0.00 74 1010.2
20260508041516 40 360 0.0 0.0 0.00 0.00 0.00 75 1010.2
20260508041037 40 360 0.0 0.0 0.00 0.00 0.00 75 1010.2
20260508040557 40 360 0.0 0.0 0.00 0.00 0.00 74 1010.2
20260508040009 40 360 0.0 0.0 0.00 0.00 0.00 74 1010.2
20260508035525 40 360 0.0 0.0 0.00 0.00 0.00 73 1010.3
20260508035111 40 360 0.0 0.0 0.00 0.00 0.00 70 1010.3
20260508034528 40 360 0.0 0.0 0.00 0.00 0.00 69 1010.4
20260508034041 41 360 0.0 0.0 0.00 0.00 0.00 71 1010.4
20260508033516 41 360 0.0 0.0 0.00 0.00 0.00 70 1010.4
20260508033036 41 360 0.0 0.0 0.00 0.00 0.00 68 1010.4
20260508032606 42 360 0.0 0.0 0.00 0.00 0.00 66 1010.4
20260508032017 42 360 0.0 0.0 0.00 0.00 0.00 64 1010.5
20260508031541 42 360 0.0 0.0 0.00 0.00 0.00 62 1010.4
20260508031014 42 360 0.0 0.0 0.00 0.00 0.00 66 1010.5
20260508030535 43 360 0.0 0.0 0.00 0.00 0.00 66 1010.5
20260508030115 43 360 0.0 0.0 0.00 0.00 0.00 64 1010.5
20260508025513 44 360 0.0 0.0 0.00 0.00 0.00 61 1010.5
20260508025053 44 360 0.0 0.0 0.00 0.00 0.00 62 1010.5
20260508024543 45 360 0.0 0.0 0.00 0.00 0.00 65 1010.5
20260508024005 45 360 0.0 0.0 0.00 0.00 0.00 62 1010.5
20260508023536 46 360 0.0 0.0 0.00 0.00 0.00 58 1010.5
20260508023058 46 360 0.0 0.0 0.00 0.00 0.00 56 1010.4
20260508022532 47 360 0.0 0.0 0.00 0.00 0.00 54 1010.4
20260508022002 47 360 0.0 0.0 0.00 0.00 0.00 58 1010.3
20260508021555 48 360 0.0 0.0 0.00 0.00 0.00 60 1010.3
20260508021019 48 360 0.0 0.0 0.00 0.00 0.00 55 1010.3
20260508020557 49 360 0.0 0.0 0.00 0.00 0.00 47 1010.2
20260508020036 49 360 0.0 0.0 0.00 0.00 0.00 46 1010.1
20260508015504 50 360 0.0 0.0 0.00 0.00 0.00 45 1010.0
20260508015049 51 360 0.0 0.0 0.00 0.00 0.00 47 1010.1
20260508014551 51 360 0.0 0.0 0.00 0.00 0.00 44 1010.0
20260508014011 52 360 0.0 0.0 0.00 0.00 0.00 47 1010.0
20260508013534 53 360 0.0 0.0 0.00 0.00 0.00 45 1009.9
20260508013101 54 360 0.0 0.0 0.00 0.00 0.00 38 1009.9
20260508012556 54 304 0.0 0.0 0.00 0.00 0.00 36 1009.8
20260508012033 55 304 0.0 2.0 0.00 0.00 0.00 35 1009.8
20260508011519 55 304 0.0 2.0 0.00 0.00 0.00 35 1009.9
20260508011100 55 304 0.0 3.0 0.00 0.00 0.00 35 1009.8
20260508010542 55 304 0.0 3.0 0.00 0.00 0.00 35 1009.8
20260508010027 55 290 0.0 2.0 0.00 0.00 0.00 34 1009.8
20260508005603 55 281 0.0 2.0 0.00 0.00 0.00 34 1009.7
20260508005041 55 281 0.0 0.0 0.00 0.00 0.00 34 1009.8
20260508004525 56 281 0.0 3.0 0.00 0.00 0.00 34 1009.8
20260508004054 56 281 0.0 4.0 0.00 0.00 0.00 34 1009.7
20260508003544 56 242 0.0 4.0 0.00 0.00 0.00 34 1009.7
20260508003027 56 331 1.0 3.0 0.00 0.00 0.00 33 1009.8
20260508002541 56 334 0.0 4.0 0.00 0.00 0.00 33 1009.8
20260508002008 56 226 0.0 3.0 0.00 0.00 0.00 33 1009.8
20260508001559 57 221 0.0 5.0 0.00 0.00 0.00 33 1009.8
20260508001031 57 275 1.0 5.0 0.00 0.00 0.00 32 1009.8
20260508000553 57 260 1.0 3.0 0.00 0.00 0.00 32 1009.8
20260508000039 57 208 1.0 9.0 0.00 0.00 0.00 32 1009.8
20260507235529 57 324 2.0 9.0 0.00 0.00 0.00 32 1009.9
20260507235014 57 314 1.0 4.0 0.00 0.00 0.00 32 1010.0
20260507234601 57 325 2.0 5.0 0.00 0.00 0.00 30 1010.0
20260507234033 58 314 0.0 8.0 0.00 0.00 0.00 31 1010.0
20260507233601 58 330 3.0 8.0 0.00 0.00 0.00 30 1010.1
20260507233057 58 326 2.0 8.0 0.00 0.00 0.00 30 1010.2
20260507232549 58 324 1.0 6.0 0.00 0.00 0.00 29 1010.1
20260507232022 59 333 2.0 8.0 0.00 0.00 0.00 32 1010.2
20260507231548 59 316 2.0 9.0 0.00 0.00 0.00 29 1010.2
20260507231021 59 322 3.0 9.0 0.00 0.00 0.00 30 1010.2
20260507230535 59 315 2.0 8.0 0.00 0.00 0.00 29 1010.3
20260507230008 59 112 2.0 8.0 0.00 0.00 0.00 29 1010.3
20260507225553 59 326 2.0 6.0 0.00 0.00 0.00 29 1010.3
20260507225003 59 321 1.0 5.0 0.00 0.00 0.00 29 1010.4
20260507224601 59 343 2.0 9.0 0.00 0.00 0.00 30 1010.4
20260507224007 59 98 4.0 9.0 0.00 0.00 0.00 28 1010.4
20260507223539 59 225 1.0 5.0 0.00 0.00 0.00 30 1010.5
20260507223033 59 342 2.0 6.0 0.00 0.00 0.00 28 1010.5
20260507222511 59 286 2.0 9.0 0.00 0.00 0.00 29 1010.5
20260507222052 60 160 1.0 5.0 0.00 0.00 0.00 31 1010.4
20260507221502 59 280 1.0 5.0 0.00 0.00 0.00 32 1010.5
20260507221024 59 257 1.0 6.0 0.00 0.00 0.00 32 1010.4
20260507220541 59 74 2.0 12.0 0.00 0.00 0.00 30 1010.5
20260507220015 59 317 5.0 12.0 0.00 0.00 0.00 30 1010.6
20260507215535 59 345 3.0 11.0 0.00 0.00 0.00 29 1010.5
20260507215053 59 344 4.0 11.0 0.00 0.00 0.00 29 1010.7
20260507214524 58 310 2.0 9.0 0.00 0.00 0.00 29 1010.7
20260507214109 59 317 2.0 8.0 0.00 0.00 0.00 30 1010.7
20260507213519 59 323 2.0 11.0 0.00 0.00 0.00 29 1010.7
20260507213100 59 326 3.0 11.0 0.00 0.00 0.00 29 1010.7
20260507212542 59 244 0.0 6.0 0.00 0.00 0.00 31 1010.8
20260507212011 59 315 2.0 9.0 0.00 0.00 0.00 30 1010.8
20260507211531 59 322 2.0 12.0 0.00 0.00 0.00 30 1010.9
20260507211004 59 46 2.0 12.0 0.00 0.00 0.00 31 1010.9
20260507210527 58 311 2.0 9.0 0.00 0.00 0.00 30 1010.9
20260507210047 58 336 4.0 8.0 0.00 0.00 0.00 29 1011.1
20260507205605 58 293 3.0 14.0 0.00 0.00 0.00 30 1011.1
20260507205032 58 332 3.0 10.0 0.00 0.00 0.00 30 1011.0
20260507204606 58 9 3.0 10.0 0.00 0.00 0.00 28 1011.3
20260507204035 57 28 2.0 13.0 0.00 0.00 0.00 31 1011.4
20260507203507 57 312 6.0 13.0 0.00 0.00 0.00 28 1011.4
20260507203051 57 319 3.0 11.0 0.00 0.00 0.00 30 1011.4
20260507202501 57 330 4.0 11.0 0.00 0.00 0.00 31 1011.5
20260507202027 58 97 3.0 8.0 0.00 0.00 0.00 31 1011.5
20260507201613 58 182 1.0 8.0 0.00 0.00 0.00 33 1011.6
20260507201015 57 349 2.0 8.0 0.00 0.00 0.00 31 1011.6
20260507200535 57 81 1.0 8.0 0.00 0.00 0.00 28 1011.7
20260507200007 57 321 1.0 8.0 0.00 0.00 0.00 34 1011.8
20260507195526 57 306 3.0 6.0 0.00 0.00 0.00 32 1011.8
20260507195109 56 319 2.0 9.0 0.00 0.00 0.00 36 1011.8
20260507194548 56 324 4.0 10.0 0.00 0.00 0.00 31 1011.9
20260507194040 56 311 3.0 10.0 0.00 0.00 0.00 31 1012.1
20260507193505 56 302 2.0 4.0 0.00 0.00 0.00 34 1011.9
20260507193028 55 155 0.0 12.0 0.00 0.00 0.00 37 1012.0
20260507192544 55 243 2.0 12.0 0.00 0.00 0.00 31 1012.1
20260507192106 56 308 3.0 8.0 0.00 0.00 0.00 31 1012.1
20260507191521 57 305 1.0 7.0 0.00 0.00 0.00 33 1012.2
20260507191100 57 86 1.0 6.0 0.00 0.00 0.00 34 1012.2
20260507190510 56 221 2.0 8.0 0.00 0.00 0.00 33 1012.2
20260507190055 56 315 3.0 8.0 0.00 0.00 0.00 32 1012.2
20260507185502 55 133 2.0 8.0 0.00 0.00 0.00 33 1012.2
20260507185044 55 112 2.0 8.0 0.00 0.00 0.00 39 1012.2
20260507184519 54 308 1.0 11.0 0.00 0.00 0.00 35 1012.3
20260507184043 54 295 2.0 8.0 0.00 0.00 0.00 33 1012.3
20260507183510 55 321 2.0 11.0 0.00 0.00 0.00 37 1012.5
20260507183053 55 349 5.0 11.0 0.00 0.00 0.00 34 1012.4
20260507182527 54 167 1.0 13.0 0.00 0.00 0.00 35 1012.4
20260507182047 54 321 1.0 13.0 0.00 0.00 0.00 31 1012.5
20260507181606 55 329 2.0 7.0 0.00 0.00 0.00 38 1012.5
20260507181042 55 327 2.0 7.0 0.00 0.00 0.00 37 1012.6
20260507180511 54 148 1.0 8.0 0.00 0.00 0.00 37 1012.5
20260507180033 54 142 3.0 8.0 0.00 0.00 0.00 34 1012.6
20260507175551 54 319 2.0 13.0 0.00 0.00 0.00 36 1012.6
20260507175021 54 331 3.0 9.0 0.00 0.00 0.00 33 1012.7
20260507174542 54 173 4.0 10.0 0.00 0.00 0.00 34 1012.7
20260507174100 55 317 3.0 10.0 0.00 0.00 0.00 35 1012.7
20260507173510 54 284 3.0 8.0 0.00 0.00 0.00 33 1012.7
20260507173034 55 185 2.0 8.0 0.00 0.00 0.00 35 1012.7
20260507172505 54 64 2.0 8.0 0.00 0.00 0.00 34 1012.9
20260507172024 54 51 2.0 8.0 0.00 0.00 0.00 33 1012.9
20260507171545 54 161 3.0 8.0 0.00 0.00 0.00 34 1013.0
20260507171015 54 329 1.0 6.0 0.00 0.00 0.00 35 1013.0
20260507170559 53 137 2.0 8.0 0.00 0.00 0.00 36 1013.0
20260507170009 53 165 2.0 9.0 0.00 0.00 0.00 33 1013.1
20260507165531 53 321 3.0 9.0 0.00 0.00 0.00 34 1013.1
20260507165053 53 129 1.0 5.0 0.00 0.00 0.00 40 1013.1
20260507164610 53 322 2.0 5.0 0.00 0.00 0.00 39 1013.2
20260507164027 53 300 2.0 4.0 0.00 0.00 0.00 42 1013.2
20260507163511 53 251 1.0 7.0 0.00 0.00 0.00 43 1013.4
20260507163042 52 163 1.0 7.0 0.00 0.00 0.00 44 1013.4
20260507162609 52 66 1.0 6.0 0.00 0.00 0.00 40 1013.4
20260507162042 52 78 1.0 8.0 0.00 0.00 0.00 42 1013.5
20260507161604 51 108 2.0 8.0 0.00 0.00 0.00 44 1013.4
20260507161036 52 288 1.0 4.0 0.00 0.00 0.00 43 1013.5
20260507160506 51 338 2.0 5.0 0.00 0.00 0.00 41 1013.5
20260507160040 51 321 1.0 8.0 0.00 0.00 0.00 40 1013.5
20260507155512 51 340 3.0 9.0 0.00 0.00 0.00 40 1013.5
20260507155044 51 330 3.0 6.0 0.00 0.00 0.00 42 1013.5
20260507154535 50 325 1.0 5.0 0.00 0.00 0.00 43 1013.5
20260507154004 49 300 1.0 5.0 0.00 0.00 0.00 42 1013.6
20260507153540 49 284 1.0 8.0 0.00 0.00 0.00 41 1013.6
20260507153011 49 286 2.0 8.0 0.00 0.00 0.00 42 1013.6
20260507152535 49 319 1.0 5.0 0.00 0.00 0.00 44 1013.7
20260507152100 48 320 1.0 8.0 0.00 0.00 0.00 43 1013.7
20260507151543 49 331 2.0 8.0 0.00 0.00 0.00 43 1013.7
20260507151004 49 308 1.0 5.0 0.00 0.00 0.00 46 1013.6
20260507150551 49 213 1.0 4.0 0.00 0.00 0.00 43 1013.6
20260507150021 48 319 1.0 3.0 0.00 0.00 0.00 47 1013.7
20260507145600 48 182 1.0 3.0 0.00 0.00 0.00 47 1013.7
20260507145056 48 93 1.0 3.0 0.00 0.00 0.00 47 1013.7
20260507144543 47 319 0.0 5.0 0.00 0.00 0.00 49 1013.8
20260507144013 47 333 2.0 5.0 0.00 0.00 0.00 51 1013.7
20260507143600 46 313 1.0 4.0 0.00 0.00 0.00 50 1013.8
20260507143015 46 299 1.0 5.0 0.00 0.00 0.00 51 1013.8
20260507142502 46 324 1.0 5.0 0.00 0.00 0.00 52 1013.9
20260507142050 46 328 1.0 5.0 0.00 0.00 0.00 50 1014.0
20260507141505 46 304 2.0 6.0 0.00 0.00 0.00 51 1014.0
20260507141051 45 338 1.0 3.0 0.00 0.00 0.00 54 1014.0